Location: Lake Zurich
(42.1970°N, 88.0930°W)
Time: 05:05:41
(UTC-05:00)

Amateur Radio Satellites - All Passes

Search period start: 31 May 2016 04:35
Search period end: 01 June 2016 04:35
Location: Lake Zurich, 42.1970°N, 88.0930°W

Satellite Date Start Highest point End Downlink Frequencies (MHz)
Time Altitude Azimuth
STARS 31 May 04:41:11 04:45:24 46° 260° (W) 04:49:39 437.465
YUBILEINY 31 May 04:46:40 04:54:06 33° 276° (W) 05:01:34 435.215
CUBESAT XI-V 31 May 04:58:02 05:02:25 42° 71° (ENE) 05:06:53 437.345
MOZHAYETS 4 31 May 05:00:22 05:03:56 22° 266° (W) 05:07:32
Cosmos 2504 31 May 05:15:36 05:24:01 66° 267° (W) 05:32:45 435.465 / 435.565
ITAMSAT 1 31 May 05:23:47 05:27:01 17° 300° (WNW) 05:30:16 435.822/435.867
HORYU 2 31 May 05:32:44 05:37:08 58° 101° (E) 05:41:31 437.375
Cosmos 2491 31 May 05:44:17 05:51:46 30° 292° (WNW) 05:59:18 435.465 / 435.565
AO-85 31 May 05:47:17 05:52:45 75° 304° (NW) 05:58:06 145.980
BRITE-PL 31 May 05:48:18 05:50:13 12° 86° (E) 05:52:05 437.365/2234.400
CUTE-I 31 May 05:48:42 05:50:21 11° 88° (E) 05:51:59 437.470
STRAND 1 31 May 06:13:57 06:17:58 24° 64° (ENE) 06:22:01 437.568
LilacSat-2 31 May 06:14:41 06:16:55 15° 92° (E) 06:19:08 437.200
AO-7 31 May 06:16:18 06:23:44 37° 301° (WNW) 06:31:11 29.400- 29.500
NOAA 15 31 May 06:22:01 06:26:51 35° 97° (E) 06:31:37 137.62
CUBESAT XI-V 31 May 06:36:31 06:39:59 20° 268° (W) 06:43:29 437.345
Cubesat XI-IV 31 May 06:40:58 06:45:54 36° 97° (E) 06:50:49 437.490
GONETS M04 31 May 06:46:19 06:50:06 13° 55° (NE) 06:53:53
HORYU 2 31 May 07:10:43 07:13:14 15° 298° (WNW) 07:15:44 437.375
NOAA 18 31 May 07:11:13 07:16:43 79° 104° (ESE) 07:22:14 137.9125
SO-50 31 May 07:12:42 07:16:16 21° 41° (NE) 07:19:44 436.795
Cosmos 2504 31 May 07:12:50 07:15:47 12° 286° (WNW) 07:18:44 435.465 / 435.565
HO-68 31 May 07:24:02 07:26:52 12° 87° (E) 07:29:42 435.675
BRITE-PL 31 May 07:24:23 07:29:23 71° 286° (WNW) 07:33:58 437.365/2234.400
CUTE-I 31 May 07:25:41 07:31:05 89° 281° (W) 07:36:28 437.470
GOMX 1 31 May 07:28:40 07:33:13 59° 100° (E) 07:37:26 467.674
AO-85 31 May 07:30:43 07:34:06 17° 323° (NW) 07:37:24 145.980
AIST 1 31 May 07:41:31 07:45:39 42° 77° (ENE) 07:49:43
Cosmos 2499 31 May 07:46:09 07:52:19 21° 63° (ENE) 07:58:35 435.465 / 435.565
LilacSat-2 31 May 07:47:51 07:51:23 37° 288° (WNW) 07:54:53 437.200
STRAND 1 31 May 07:52:03 07:56:53 43° 261° (W) 08:01:46 437.568
DOVE 4 31 May 07:57:23 08:01:36 53° 99° (E) 08:05:40 437.250
CINEMA 3 31 May 07:59:37 08:02:11 16° 92° (E) 08:04:45 145.822/145.860
NOAA 15 31 May 08:01:55 08:06:32 31° 294° (WNW) 08:11:07 137.62
PRISM 31 May 08:02:36 08:06:35 46° 72° (ENE) 08:10:36 437.425
M-CUBED/EXP-1 PRIME 31 May 08:11:51 08:13:20 12° 98° (E) 08:14:49 437.505
SEEDS 31 May 08:20:02 08:23:06 19° 93° (E) 08:26:11 437.485
Cubesat XI-IV 31 May 08:21:13 08:25:52 31° 294° (WNW) 08:30:30 437.490
CANX-2 31 May 08:24:53 08:28:48 34° 97° (E) 08:32:43 2200.000
PCSat 31 May 08:28:47 08:33:34 33° 110° (ESE) 08:38:22 145.827
GONETS M04 31 May 08:40:14 08:48:54 66° 79° (ENE) 08:57:31
CUTE 1.7 + AOD 2 31 May 08:51:07 08:55:22 59° 100° (E) 08:59:36 437.475
SO-50 31 May 08:52:31 08:57:10 62° 241° (WSW) 09:01:38 436.795
NOAA 18 31 May 08:53:30 08:56:43 16° 302° (WNW) 08:59:56 137.9125
AAUSAT CUBESAT 2 31 May 08:56:37 09:00:14 27° 95° (E) 09:03:49 437.432
COMPASS 1 31 May 08:57:57 09:01:51 35° 97° (E) 09:05:44 437.405
O/OREOS (USA 219) 31 May 08:59:01 09:03:32 71° 112° (ESE) 09:08:05 437.305
CUTE-I 31 May 09:07:55 09:10:21 13° 302° (WNW) 09:12:46 437.470
GOMX 1 31 May 09:08:18 09:10:44 14° 299° (WNW) 09:13:05 467.674
HO-68 31 May 09:08:29 09:15:41 76° 105° (ESE) 09:22:52 435.675
Oscar 11 31 May 09:12:25 09:15:17 17° 92° (E) 09:18:08 145.826/435.025
AIST 1 31 May 09:20:11 09:22:51 16° 275° (W) 09:25:30
ANTELSAT 31 May 09:21:58 09:24:56 18° 65° (ENE) 09:27:54 437.575/2403.000
ZACube-1 31 May 09:34:03 09:37:35 25° 95° (E) 09:41:09 437.345
AUBIESAT-1 31 May 09:34:28 09:37:44 58° 291° (WNW) 09:41:02 437.475
CINEMA 3 31 May 09:35:39 09:39:33 41° 288° (WNW) 09:43:28 145.822/145.860
DOVE 4 31 May 09:36:35 09:38:50 14° 298° (WNW) 09:41:03 437.250
Cosmos 2499 31 May 09:37:51 09:46:36 90° 97° (E) 09:55:31 435.465 / 435.565
PRISM 31 May 09:39:43 09:42:09 15° 268° (W) 09:44:35 437.425
M-CUBED/EXP-1 PRIME 31 May 09:45:07 09:48:05 32° 293° (WNW) 09:51:04 437.505
CUSAT 1 31 May 09:53:55 09:57:40 15° 76° (ENE) 10:01:39 437.405
SEEDS 31 May 09:55:00 09:58:55 37° 289° (WNW) 10:02:51 437.485
CUBEBUG 2 31 May 09:57:09 10:01:21 80° 283° (WNW) 10:05:35 437.445
CANX-2 31 May 10:01:10 10:04:28 22° 293° (WNW) 10:07:46 2200.000
BEESAT 3 31 May 10:05:03 10:08:18 25° 114° (ESE) 10:11:36 437.485
FUNcube-1 31 May 10:09:22 10:13:33 60° 101° (E) 10:17:47 145.935
PCSat 31 May 10:11:51 10:16:52 38° 308° (NW) 10:21:56 145.827
UNISAT 6 31 May 10:15:54 10:20:12 70° 75° (ENE) 10:24:29 437.425
UWE-3 31 May 10:17:00 10:21:11 69° 285° (WNW) 10:25:26 435.000/436.395/437.385
TIGRISAT 31 May 10:22:00 10:26:18 77° 77° (ENE) 10:30:35 435.000
DELFI C3 31 May 10:27:20 10:31:18 53° 100° (E) 10:35:14 145.870
DANDE 31 May 10:27:34 10:29:20 11° 73° (ENE) 10:31:11 436.750
CUTE 1.7 + AOD 2 31 May 10:28:33 10:30:43 14° 297° (WNW) 10:32:53 437.475
AAUSAT CUBESAT 2 31 May 10:32:09 10:35:37 26° 292° (WNW) 10:39:06 437.432
COMPASS 1 31 May 10:34:02 10:37:11 21° 293° (WNW) 10:40:19 437.405
GONETS M04 31 May 10:38:08 10:44:59 27° 279° (W) 10:51:50
O/OREOS (USA 219) 31 May 10:41:00 10:43:28 14° 309° (NW) 10:45:56 437.305
HUMSAT D 31 May 10:41:53 10:45:43 34° 97° (E) 10:49:34 437.325/437.525
QB50P1 31 May 10:46:17 10:49:51 27° 68° (ENE) 10:53:25 145.935-145.965
POPSAT HIP 1 31 May 10:46:19 10:49:52 27° 68° (ENE) 10:53:25 437.405
Oscar 11 31 May 10:47:29 10:51:37 43° 288° (WNW) 10:55:44 145.826/435.025
QB50P2 31 May 10:49:54 10:53:38 31° 69° (ENE) 10:57:21 145.880/145.840
POLYITAN 1 31 May 10:52:23 10:56:07 31° 70° (ENE) 10:59:52 437.675
ANTELSAT 31 May 10:57:17 11:01:22 41° 261° (W) 11:05:26 437.575/2403.000
HO-68 31 May 10:57:22 11:02:40 23° 304° (WNW) 11:08:00 435.675
NANOSAT C BR1 31 May 11:01:53 11:05:47 37° 71° (ENE) 11:09:41 145.865
ZACube-1 31 May 11:10:14 11:13:50 28° 291° (WNW) 11:17:28 437.345
BEESAT 2 31 May 11:15:15 11:19:13 85° 125° (SE) 11:23:14 435.950
CUBEBUG 1 31 May 11:18:08 11:18:43 10° 89° (E) 11:19:17 437.445
JAS-2 31 May 11:28:37 11:34:43 27° 59° (ENE) 11:40:57 435.910
ESTCUBE 1 31 May 11:29:29 11:33:02 22° 94° (E) 11:36:33 437.505/2401.250
CUSAT 1 31 May 11:31:32 11:38:16 80° 97° (E) 11:46:14 437.405
Cosmos 2499 31 May 11:32:54 11:38:33 20° 282° (WNW) 11:44:18 435.465 / 435.565
VELOX 1 31 May 11:34:24 11:37:07 16° 92° (E) 11:39:48 145.980
50 SAT 31 May 11:37:32 11:40:04 17° 93° (E) 11:42:35 437.505
DUCHIFAT 1 31 May 11:38:03 11:42:16 89° 267° (W) 11:46:29 145.980
BUGSAT 1 31 May 11:38:50 11:42:48 43° 72° (ENE) 11:46:44 437.445
BEESAT 3 31 May 11:42:24 11:45:54 30° 311° (NW) 11:49:26 437.485
FUNcube-1 31 May 11:47:21 11:49:19 13° 297° (WNW) 11:51:19 145.935
UKube-1 31 May 11:55:38 11:58:33 18° 93° (E) 12:01:28 .
UNISAT 6 31 May 11:56:44 11:57:23 10° 271° (W) 11:58:01 437.425
DELFI C3 31 May 12:03:43 12:05:42 13° 296° (WNW) 12:07:42 145.870
DANDE 31 May 12:04:24 12:10:16 70° 95° (E) 12:17:52 436.750
AISAT 31 May 12:09:56 12:14:06 39° 98° (E) 12:18:12 437.250
HUMSAT D 31 May 12:18:00 12:21:08 21° 293° (WNW) 12:24:17 437.325/437.525
QB50P1 31 May 12:22:00 12:25:34 26° 264° (W) 12:29:08 145.935-145.965
POPSAT HIP 1 31 May 12:22:00 12:25:35 26° 264° (W) 12:29:11 437.405
AIST 2 31 May 12:22:34 12:26:02 27° 114° (ESE) 12:29:32 435.215
QB50P2 31 May 12:26:06 12:29:27 23° 265° (W) 12:32:50 145.880/145.840
POLYITAN 1 31 May 12:28:38 12:31:57 22° 266° (W) 12:35:17 437.675
Oscar 19 31 May 12:32:08 12:36:30 28° 66° (ENE) 12:40:52 437.125/150
NANOSAT C BR1 31 May 12:38:40 12:41:38 19° 267° (W) 12:44:38 145.865
AO-85 31 May 12:39:49 12:43:03 18° 38° (NE) 12:46:05 145.980
DX 1 31 May 12:49:17 12:53:40 85° 102° (ESE) 12:58:00 434.975-435.025
CUBEBUG 1 31 May 12:51:08 12:55:30 72° 285° (WNW) 12:59:49 437.445
BEESAT 2 31 May 12:55:44 12:57:39 13° 321° (NW) 12:59:33 435.950
SPROUT 31 May 12:58:33 13:02:43 53° 100° (E) 13:06:52 437.525
ESTCUBE 1 31 May 13:05:45 13:09:55 36° 290° (WNW) 13:14:05 437.505/2401.250
TISAT 1 31 May 13:07:49 13:10:40 18° 93° (E) 13:13:30 437.305
VELOX 1 31 May 13:09:35 13:13:51 48° 288° (WNW) 13:18:04 145.980
50 SAT 31 May 13:10:32 13:13:52 31° 289° (WNW) 13:17:12 437.505
JAS-2 31 May 13:11:27 13:18:57 73° 258° (WSW) 13:26:52 435.910
BUGSAT 1 31 May 13:15:44 13:18:22 16° 267° (W) 13:20:59 437.445
CUSAT 1 31 May 13:15:57 13:21:25 23° 299° (WNW) 13:27:26 437.405
ITAMSAT 1 31 May 13:24:51 13:27:44 15° 59° (ENE) 13:30:37 435.822/435.867
Gurwin Techsat 1B 31 May 13:28:27 13:33:20 39° 69° (ENE) 13:38:15 435.225
UKube-1 31 May 13:30:42 13:34:47 42° 289° (WNW) 13:38:50 .
AO-7 31 May 13:33:57 13:39:09 19° 48° (NE) 13:44:20 29.400- 29.500
AISAT 31 May 13:47:04 13:50:18 20° 295° (WNW) 13:53:30 437.250
DANDE 31 May 13:49:08 13:54:06 23° 300° (WNW) 13:59:56 436.750
Cosmos 2491 31 May 13:55:52 14:03:28 32° 68° (ENE) 14:10:58 435.465 / 435.565
AIST 2 31 May 14:00:43 14:04:25 31° 311° (NW) 14:08:09 435.215
YUBILEINY 31 May 14:02:27 14:04:00 11° 71° (ENE) 14:05:34 435.215
Oscar 19 31 May 14:10:51 14:15:39 38° 262° (W) 14:20:29 437.125/150
SWISSCUBE 31 May 14:15:46 14:19:27 22° 94° (E) 14:23:06 437.505
AO-85 31 May 14:19:29 14:24:09 74° 239° (WSW) 14:28:22 145.980
ITUPSAT 1 31 May 14:24:11 14:28:01 23° 94° (E) 14:31:49 437.325
DX 1 31 May 14:28:38 14:29:10 10° 301° (WNW) 14:29:41 434.975-435.025
SPROUT 31 May 14:35:52 14:38:15 15° 297° (WNW) 14:40:36 437.525
TISAT 1 31 May 14:42:37 14:46:29 38° 289° (WNW) 14:50:20 437.305
BEESAT 31 May 14:44:23 14:48:51 37° 98° (E) 14:53:16 436.000
ITAMSAT 1 31 May 15:01:23 15:06:33 76° 257° (WSW) 15:11:46 435.822/435.867
JAS-2 31 May 15:01:41 15:05:13 14° 277° (W) 15:08:50 435.910
Gurwin Techsat 1B 31 May 15:08:55 15:13:22 27° 265° (W) 15:17:52 435.225
AO-7 31 May 15:22:19 15:30:34 75° 68° (ENE) 15:38:53 29.400- 29.500
YUBILEINY 31 May 15:50:22 15:58:53 63° 92° (E) 16:07:26 435.215
Cosmos 2491 31 May 15:52:16 16:00:47 59° 269° (W) 16:09:15 435.465 / 435.565
SWISSCUBE 31 May 15:52:52 15:57:24 42° 290° (WNW) 16:01:53 437.505
ITUPSAT 1 31 May 16:01:30 16:05:58 39° 291° (WNW) 16:10:25 437.325
Cosmos 2504 31 May 16:04:40 16:09:28 19° 78° (ENE) 16:14:26 435.465 / 435.565
KKS-1 31 May 16:06:25 16:10:24 32° 97° (E) 16:14:21 437.445
BEESAT 31 May 16:22:33 16:26:26 25° 294° (WNW) 16:30:17 436.000
RS-15 31 May 16:29:46 16:40:37 56° 112° (ESE) 16:52:02 29.354- 29.394
STARS 31 May 16:30:09 16:33:59 29° 97° (E) 16:37:46 437.465
HORYU 2 31 May 16:31:02 16:35:21 56° 73° (ENE) 16:39:41 437.375
MOZHAYETS 4 31 May 16:53:26 16:58:06 82° 102° (ESE) 17:02:45
BRITE-PL 31 May 16:57:46 17:01:47 20° 63° (ENE) 17:05:47 437.365/2234.400
NOAA 18 31 May 16:59:22 17:03:28 22° 62° (ENE) 17:07:35 137.9125
GOMX 1 31 May 17:03:35 17:04:03 10° 58° (ENE) 17:04:31 467.674
CUTE-I 31 May 17:09:53 17:13:49 22° 63° (ENE) 17:17:47 437.470
PCSat 31 May 17:15:41 17:20:33 32° 50° (NE) 17:25:22 145.827
AO-7 31 May 17:17:41 17:24:03 24° 267° (W) 17:30:29 29.400- 29.500
O/OREOS (USA 219) 31 May 17:30:22 17:33:18 17° 53° (NE) 17:36:11 437.305
NOAA 15 31 May 17:42:21 17:47:33 59° 72° (ENE) 17:52:47 137.62
KKS-1 31 May 17:43:14 17:46:49 25° 293° (WNW) 17:50:24 437.445
YUBILEINY 31 May 17:49:00 17:56:17 29° 293° (WNW) 18:03:38 435.215
Cosmos 2504 31 May 17:54:30 18:01:46 77° 279° (W) 18:09:34 435.465 / 435.565
HO-68 31 May 17:55:20 17:57:53 12° 48° (NE) 18:00:26 435.675
Cubesat XI-IV 31 May 18:03:23 18:08:36 62° 72° (ENE) 18:13:52 437.490
STARS 31 May 18:06:37 18:10:15 26° 293° (WNW) 18:13:51 437.465
HORYU 2 31 May 18:10:01 18:12:16 14° 269° (W) 18:14:30 437.375
BEESAT 3 31 May 18:21:38 18:24:41 21° 45° (NE) 18:27:43 437.485
LilacSat-2 31 May 18:29:45 18:33:32 75° 259° (W) 18:37:19 437.200
CUBESAT XI-V 31 May 18:30:59 18:35:43 84° 286° (WNW) 18:40:24 437.345
MOZHAYETS 4 31 May 18:32:57 18:34:35 12° 300° (WNW) 18:36:14
BRITE-PL 31 May 18:34:04 18:39:42 65° 259° (W) 18:45:22 437.365/2234.400
GOMX 1 31 May 18:35:48 18:41:14 70° 75° (ENE) 18:46:30 467.674
NOAA 18 31 May 18:38:25 18:43:45 53° 259° (W) 18:49:06 137.9125
RS-15 31 May 18:42:11 18:53:15 51° 317° (NW) 19:04:59 29.354- 29.394
AUBIESAT-1 31 May 18:48:12 18:50:28 15° 61° (ENE) 18:52:40 437.475
CUTE-I 31 May 18:48:19 18:53:29 53° 260° (W) 18:58:41 437.470
M-CUBED/EXP-1 PRIME 31 May 18:57:56 19:01:09 24° 65° (ENE) 19:04:11 437.505
PCSat 31 May 18:58:58 19:04:02 41° 248° (WSW) 19:09:03 145.827
CINEMA 3 31 May 19:01:40 19:04:49 18° 66° (ENE) 19:07:53 145.822/145.860
DOVE 4 31 May 19:02:12 19:07:17 61° 74° (ENE) 19:12:08 437.250
O/OREOS (USA 219) 31 May 19:08:40 19:13:03 55° 252° (WSW) 19:17:24 437.305
SEEDS 31 May 19:13:05 19:15:28 15° 64° (ENE) 19:17:51 437.485
ISS 31 May 19:18:06 19:20:32 20° 134° (SE) 19:23:00 145.825
CANX-2 31 May 19:18:21 19:21:51 26° 68° (ENE) 19:25:21 2200.000
NOAA 15 31 May 19:24:07 19:27:42 18° 268° (W) 19:31:18 137.62
BEESAT 2 31 May 19:32:54 19:36:51 57° 54° (NE) 19:40:46 435.950
HO-68 31 May 19:37:11 19:44:09 59° 68° (ENE) 19:51:09 435.675
CUTE 1.7 + AOD 2 31 May 19:44:07 19:48:05 43° 72° (ENE) 19:52:07 437.475
Cubesat XI-IV 31 May 19:45:43 19:49:06 17° 269° (W) 19:52:30 437.490
AAUSAT CUBESAT 2 31 May 19:47:48 19:50:50 20° 66° (ENE) 19:53:53 437.432
COMPASS 1 31 May 19:49:24 19:52:50 26° 68° (ENE) 19:56:17 437.405
GONETS M04 31 May 19:50:58 19:54:51 14° 74° (ENE) 19:58:42
Cosmos 2504 31 May 19:53:03 19:56:44 14° 302° (WNW) 20:00:32 435.465 / 435.565
BEESAT 3 31 May 19:58:49 20:02:33 41° 243° (WSW) 20:06:15 437.485
PHONESAT 2.4 31 May 20:01:12 20:03:23 17° 153° (SSE) 20:05:35 2401.200-2431.200
STRAND 1 31 May 20:01:37 20:06:44 61° 101° (E) 20:11:50 437.568
Oscar 11 31 May 20:08:22 20:10:46 15° 63° (ENE) 20:13:12 145.826/435.025
AIST 1 31 May 20:11:36 20:15:11 25° 89° (E) 20:18:47
GOMX 1 31 May 20:16:28 20:19:42 16° 270° (W) 20:22:54 467.674
AUBIESAT-1 31 May 20:20:53 20:24:43 43° 255° (WSW) 20:28:18 437.475
CUSAT 1 31 May 20:27:48 20:30:42 12° 52° (NE) 20:33:24 437.405
Cosmos 2499 31 May 20:28:29 20:30:47 12° 73° (ENE) 20:33:08 435.465 / 435.565
ZACube-1 31 May 20:30:48 20:33:59 22° 67° (ENE) 20:37:10 437.345
M-CUBED/EXP-1 PRIME 31 May 20:32:09 20:35:38 27° 257° (WSW) 20:38:54 437.505
CINEMA 3 31 May 20:37:11 20:41:40 46° 261° (W) 20:45:58 145.822/145.860
DOVE 4 31 May 20:42:08 20:45:17 16° 269° (W) 20:48:22 437.250
AIST 2 31 May 20:43:06 20:46:30 24° 46° (NE) 20:49:53 435.215
SEEDS 31 May 20:46:41 20:50:44 50° 260° (W) 20:54:51 437.485
ISS 31 May 20:53:34 20:56:45 51° 330° (NNW) 20:59:57 145.825
CANX-2 31 May 20:54:02 20:57:37 27° 265° (W) 21:01:14 2200.000
CUBEBUG 2 31 May 20:55:27 20:59:47 89° 68° (ENE) 21:04:01 437.445
RS-15 31 May 21:00:17 21:09:38 25° 349° (N) 21:19:16 29.354- 29.394
DANDE 31 May 21:02:26 21:06:45 15° 54° (NE) 21:10:52 436.750
FUNcube-1 31 May 21:05:19 21:09:20 47° 73° (ENE) 21:13:19 145.935
BEESAT 2 31 May 21:12:21 21:14:13 13° 251° (WSW) 21:16:03 435.950
DELFI C3 31 May 21:13:48 21:17:21 32° 70° (ENE) 21:20:56 145.870
UWE-3 31 May 21:14:12 21:18:28 83° 257° (WSW) 21:22:40 435.000/436.395/437.385
PRISM 31 May 21:18:40 21:22:51 71° 102° (ESE) 21:26:59 437.425
CUTE 1.7 + AOD 2 31 May 21:21:30 21:24:09 16° 268° (W) 21:26:50 437.475
AAUSAT CUBESAT 2 31 May 21:22:19 21:26:05 35° 263° (W) 21:29:55 437.432
COMPASS 1 31 May 21:24:48 21:28:18 27° 265° (W) 21:31:52 437.405
HO-68 31 May 21:26:24 21:32:15 27° 266° (W) 21:38:08 435.675
HUMSAT D 31 May 21:33:59 21:37:19 25° 68° (ENE) 21:40:41 437.325/437.525
PHONESAT 2.4 31 May 21:36:41 21:39:44 50° 169° (S) 21:42:47 2401.200-2431.200
GONETS M04 31 May 21:41:17 21:50:02 74° 94° (E) 21:58:45
STRAND 1 31 May 21:41:59 21:45:24 18° 299° (WNW) 21:48:50 437.568
Oscar 11 31 May 21:42:15 21:46:27 54° 260° (W) 21:50:42 145.826/435.025
AIST 1 31 May 21:48:51 21:52:40 28° 286° (WNW) 21:56:29
ZACube-1 31 May 22:06:21 22:10:07 32° 263° (W) 22:13:52 437.345
CUSAT 1 31 May 22:07:16 22:14:44 63° 76° (ENE) 22:20:41 437.405
UNISAT 6 31 May 22:08:27 22:10:38 14° 91° (E) 22:12:50 437.425
TIGRISAT 31 May 22:14:08 22:16:35 15° 92° (E) 22:19:03 435.000
CUBEBUG 1 31 May 22:14:50 22:15:52 11° 60° (ENE) 22:16:54 437.445
Cosmos 2499 31 May 22:14:54 22:22:12 73° 94° (E) 22:30:05 435.465 / 435.565
AIST 2 31 May 22:21:14 22:25:06 38° 244° (WSW) 22:28:57 435.215
ESTCUBE 1 31 May 22:29:38 22:33:07 22° 66° (ENE) 22:36:38 437.505/2401.250
ISS 31 May 22:31:26 22:33:45 18° 350° (N) 22:36:05 145.825
VELOX 1 31 May 22:32:27 22:35:15 17° 63° (ENE) 22:38:02 145.980
DANDE 31 May 22:43:08 22:51:29 64° 76° (ENE) 22:58:39 436.750
FUNcube-1 31 May 22:43:36 22:45:50 14° 269° (W) 22:48:05 145.935
ANTELSAT 31 May 22:48:01 22:52:02 36° 98° (E) 22:56:06 437.575/2403.000
DELFI C3 31 May 22:49:24 22:52:17 19° 267° (W) 22:55:12 145.870
UKube-1 31 May 22:50:59 22:53:49 17° 64° (ENE) 22:56:39 .
PRISM 31 May 22:56:17 22:57:34 11° 299° (WNW) 22:58:50 437.425
SO-50 31 May 23:06:43 23:11:15 39° 116° (ESE) 23:15:49 436.795
AISAT 31 May 23:07:35 23:11:43 38° 70° (ENE) 23:15:52 437.250
HUMSAT D 31 May 23:09:27 23:12:53 26° 265° (W) 23:16:20 437.325/437.525
PHONESAT 2.4 31 May 23:13:14 23:16:20 60° 186° (S) 23:19:26 2401.200-2431.200
RS-15 31 May 23:17:06 23:27:30 31° 24° (NNE) 23:38:00 29.354- 29.394
DUCHIFAT 1 31 May 23:23:17 23:25:24 14° 91° (E) 23:27:30 145.980
GONETS M04 31 May 23:40:50 23:47:43 25° 295° (WNW) 23:54:38
UNISAT 6 31 May 23:43:26 23:47:41 55° 286° (WNW) 23:51:59 437.425
DX 1 31 May 23:44:52 23:49:14 78° 75° (ENE) 23:53:38 434.975-435.025
CUBEBUG 1 31 May 23:47:03 23:51:29 83° 258° (WSW) 23:55:56 437.445
50 SAT 31 May 23:48:32 23:52:09 66° 259° (WSW) 23:55:49 437.505
TIGRISAT 31 May 23:49:22 23:53:32 50° 288° (WNW) 23:57:48 435.000
CUSAT 1 31 May 23:50:31 23:55:59 24° 279° (W) 00:00:42 437.405
SPROUT 31 May 23:52:24 23:56:27 42° 72° (ENE) 00:00:31 437.525
TISAT 1 01 Jun 00:00:34 00:03:03 15° 64° (ENE) 00:05:32 437.305
QB50P1 01 Jun 00:05:26 00:09:29 45° 99° (E) 00:13:30 145.935-145.965
ESTCUBE 1 01 Jun 00:05:31 00:09:42 37° 263° (W) 00:13:56 437.505/2401.250
POPSAT HIP 1 01 Jun 00:05:31 00:09:33 44° 99° (E) 00:13:34 437.405
VELOX 1 01 Jun 00:06:56 00:11:18 52° 260° (W) 00:15:41 145.980
ISS 01 Jun 00:08:49 00:11:06 17° 10° (N) 00:13:24 145.825
QB50P2 01 Jun 00:09:25 00:13:33 53° 100° (E) 00:17:40 145.880/145.840
Cosmos 2499 01 Jun 00:10:36 00:16:14 22° 296° (WNW) 00:22:10 435.465 / 435.565
POLYITAN 1 01 Jun 00:11:54 00:16:03 54° 100° (E) 00:20:10 437.675
NANOSAT C BR1 01 Jun 00:20:59 00:25:10 66° 101° (ESE) 00:29:19 145.865
JAS-2 01 Jun 00:23:20 00:28:00 18° 86° (E) 00:32:20 435.910
ANTELSAT 01 Jun 00:25:16 00:28:33 21° 293° (WNW) 00:31:52 437.575/2403.000
UKube-1 01 Jun 00:25:19 00:29:30 46° 261° (W) 00:33:42 .
DANDE 01 Jun 00:26:55 00:33:38 29° 277° (W) 00:39:39 436.750
AISAT 01 Jun 00:44:58 00:48:18 21° 266° (W) 00:51:40 437.250
SO-50 01 Jun 00:47:28 00:51:49 31° 314° (NW) 00:56:10 436.795
PHONESAT 2.4 01 Jun 00:50:07 00:52:49 26° 202° (SSW) 00:55:29 2401.200-2431.200
BUGSAT 1 01 Jun 00:55:12 00:59:14 69° 102° (ESE) 01:03:13 437.445
DUCHIFAT 1 01 Jun 00:57:20 01:01:24 50° 287° (WNW) 01:05:26 145.980
SWISSCUBE 01 Jun 01:22:41 01:26:38 27° 66° (ENE) 01:30:36 437.505
SPROUT 01 Jun 01:29:47 01:32:36 17° 268° (W) 01:35:25 437.525
RS-15 01 Jun 01:30:15 01:42:36 73° 53° (NE) 01:54:54 29.354- 29.394
ITUPSAT 1 01 Jun 01:31:23 01:35:27 29° 67° (ENE) 01:39:33 437.325
TISAT 1 01 Jun 01:34:13 01:38:19 49° 260° (W) 01:42:25 437.305
QB50P1 01 Jun 01:42:16 01:44:54 16° 296° (WNW) 01:47:33 145.935-145.965
POPSAT HIP 1 01 Jun 01:42:20 01:45:00 17° 295° (WNW) 01:47:40 437.405
ISS 01 Jun 01:44:56 01:48:08 49° 29° (NNE) 01:51:18 145.825
Gurwin Techsat 1B 01 Jun 01:45:27 01:48:18 14° 90° (E) 01:51:08 435.225
QB50P2 01 Jun 01:46:38 01:48:56 14° 297° (WNW) 01:51:12 145.880/145.840
POLYITAN 1 01 Jun 01:49:11 01:51:24 14° 297° (WNW) 01:53:37 437.675
BEESAT 01 Jun 01:51:07 01:55:38 45° 70° (ENE) 02:00:11 436.000
NANOSAT C BR1 01 Jun 01:58:46 02:00:22 12° 298° (WNW) 02:01:58 145.865
YUBILEINY 01 Jun 02:00:07 02:07:46 32° 69° (ENE) 02:15:23 435.215
JAS-2 01 Jun 02:06:38 02:13:59 80° 285° (WNW) 02:20:26 435.910
Oscar 19 01 Jun 02:21:22 02:26:32 74° 103° (ESE) 02:31:39 437.125/150
BUGSAT 1 01 Jun 02:33:11 02:34:02 11° 299° (WNW) 02:34:53 437.445
Cosmos 2491 01 Jun 02:57:58 03:05:41 35° 84° (E) 03:13:22 435.465 / 435.565
SWISSCUBE 01 Jun 02:59:59 03:04:17 34° 263° (W) 03:08:37 437.505
KKS-1 01 Jun 03:04:52 03:08:49 32° 69° (ENE) 03:12:47 437.445
ITUPSAT 1 01 Jun 03:08:59 03:13:11 31° 263° (W) 03:17:27 437.325
ITAMSAT 1 01 Jun 03:13:52 03:18:43 37° 98° (E) 03:23:31 435.822/435.867
ISS 01 Jun 03:21:51 03:24:21 20° 226° (SW) 03:26:51 145.825
Gurwin Techsat 1B 01 Jun 03:23:28 03:28:47 72° 286° (WNW) 03:34:04 435.225
AO-7 01 Jun 03:24:27 03:30:45 23° 92° (E) 03:37:00 29.400- 29.500
STARS 01 Jun 03:27:16 03:31:02 28° 68° (ENE) 03:34:48 437.465
BEESAT 01 Jun 03:30:13 03:33:38 19° 267° (W) 03:37:04 436.000
RS-15 01 Jun 03:43:39 03:54:12 36° 255° (WSW) 04:04:41 29.354- 29.394
Cosmos 2504 01 Jun 03:45:18 03:53:22 43° 74° (ENE) 04:01:40 435.465 / 435.565
JAS-2 01 Jun 03:53:29 03:57:41 17° 308° (NW) 04:01:41 435.910
MOZHAYETS 4 01 Jun 03:55:30 04:00:03 80° 76° (ENE) 04:04:39
YUBILEINY 01 Jun 03:56:30 04:05:01 59° 269° (W) 04:13:33 435.215
CUBESAT XI-V 01 Jun 04:00:40 04:02:21 12° 60° (ENE) 04:04:03 437.345
Oscar 19 01 Jun 04:02:19 04:05:13 15° 300° (WNW) 04:08:07 437.125/150
